PUUANAHULU HI US current weather conditions

sailwx.info

Wind from 115 at 4 knots gusting 6

Air temperature 18.3° C
Dewpoint 15.9° C

Last reported at 2015-Jul-29 14:37 UTC.
Time now 2015-Jul-29 16:00 UTC

Location: N 19°50' W 155°46'.
View on Google Maps.

See reports from other nearby stations

  
Tides and Currents Weather Stations Pressure Air Temp Water Temp Dewpoint Dewpoint Depression Visibility Wind Speed Wind Dir Waves Ship Positions
date/time (UTC)wind fromknots sea level pressurealtimeterstation pressurevisibilityair tempwater tempwave heightnotes
2015-Jul-29 14:37 115 4 gusting 6 18.3
2015-Jul-29 13:37 120 5 gusting 7 18.3
2015-Jul-29 12:37 133 6 gusting 7 18.9
2015-Jul-29 11:37 128 3 gusting 6 20.0
2015-Jul-29 10:37 140 3 gusting 4 20.6
2015-Jul-29 09:37 127 1 gusting 4 20.0
2015-Jul-29 08:37 21.1
2015-Jul-29 07:37 21.1
2015-Jul-29 06:37 315 1 gusting 3 21.1
2015-Jul-29 05:37 274 1 gusting 5 21.7
2015-Jul-29 04:37 313 3 gusting 6 22.2
2015-Jul-29 03:37 313 3 gusting 7 23.3
2015-Jul-29 02:37 298 4 gusting 11 23.9
2015-Jul-29 01:37 292 6 gusting 12 25.6
2015-Jul-29 00:37 291 6 gusting 13 26.7
2015-Jul-28 23:37 325 6 gusting 14 26.7
2015-Jul-28 22:37 273 5 gusting 12 26.7
2015-Jul-28 21:37 305 6 gusting 11 26.1
2015-Jul-28 20:37 287 2 gusting 6 26.1
2015-Jul-28 19:37 335 2 gusting 6 24.4
2015-Jul-28 18:37 021 4 gusting 6 23.3
2015-Jul-28 17:37 103 3 gusting 7 21.7
2015-Jul-28 16:37 122 6 gusting 8 17.2
2015-Jul-28 15:37 128 6 gusting 7 16.7
2015-Jul-28 14:37 131 6 gusting 6 16.7
2015-Jul-28 13:37 157 3 gusting 6 16.7
2015-Jul-28 12:37 130 3 gusting 8 17.8
2015-Jul-28 11:37 130 5 gusting 7 18.3
2015-Jul-28 10:37 133 4 gusting 6 19.4
2015-Jul-28 09:37 167 4 gusting 6 18.9
2015-Jul-28 08:37 152 2 gusting 3 20.0
2015-Jul-28 07:37 149 0 gusting 2 19.4
2015-Jul-28 06:37 167 0 gusting 2 20.0
2015-Jul-28 05:37 20.6
2015-Jul-28 04:37 097 0 gusting 6 20.6
2015-Jul-28 03:37 202 0 gusting 8 20.6
2015-Jul-28 02:37 315 6 gusting 11 21.7
2015-Jul-28 01:37 317 6 gusting 15 22.2
2015-Jul-28 00:37 323 9 gusting 14 23.9
2015-Jul-27 23:37 326 9 gusting 14 24.4
2015-Jul-27 22:37 316 7 gusting 15 26.1
2015-Jul-27 21:37 330 6 gusting 14 25.6
2015-Jul-27 20:37 280 5 gusting 10 26.1
2015-Jul-27 19:37 299 3 gusting 9 25.0
2015-Jul-27 18:37 288 3 gusting 10 23.9
2015-Jul-27 17:37 227 6 gusting 7 22.2
2015-Jul-27 16:37 116 6 gusting 9 18.3